Weather in Campo Grande

Brazil     20°27′46″S   54°37′08″W
temp.,
°C
wind,
m/s
gust,
m/s
humid.,
%
clouds,
%
prec.,
mm/h
press.,
hPa
HPBL,
m
20 april, tue
tue2023:00+21ese23480 0.0 101454
02:00+19ene412560 0.0 1013313
05:00+17ene412640 0.0 1014287
08:00+22ene610570 0.0 1016412
11:00+28ene42380 0.0 10151467
14:00+29se22280 0.0 10122655
17:00+25s23380 0.0 101187
20:00+22e36430 0.0 1013114
21 april, wed
wed2123:00+20e310470 0.0 1014195
02:00+18e411510 0.0 1013213
05:00+17ene513570 0.0 1014312
08:00+21ene713530 0.0 1015502
11:00+28ene66360 0.0 10141205
14:00+29ene22280 0.0 10112364
17:00+26se22380 0.0 101128
20:00+21e410430 0.0 1013218
22 april, thu
thu2223:00+20e411460 0.0 1014227
02:00+19e411480 0.0 1013238
05:00+17ene513520 0.0 1014302
08:00+21ene712510 0.0 1015411
11:00+28ne44340 0.0 10151217
14:00+30ene22300 0.0 10112130
17:00+26ese23410 0.0 101187
20:00+22e49470 0.0 1012188
23 april, fri
fri2323:00+21e410518 0.0 1013194
02:00+20ene4104817 0.0 1012189
05:00+19ene5124819 0.0 1013262
08:00+22ene611435 0.0 1015333
11:00+30nne56296 0.0 10131388
14:00+32n442774 0.0 10092505
17:00+28ene223724 0.0 100826
20:00+27nne223592 0.0 100941
24 april, sat
sat2423:00+25ne383715 0.0 1010185
02:00+22ne344380 0.0 100974
05:00+24nnw41140100 0.0 1010532
08:00+26nw51139100 0.0 1012852
11:00+28wnw5838100 0.0 10121360
14:00+30w573866 0.0 10092203
17:00+25s4564100 0.0 1007267
20:00+17ssw51097100 5.6 1013538